Tracking 33446 objects as of 10-Mar-2026
HD Live streaming from Space Station
objects crossing your sky now

STARLINK-35726

Track STARLINK-35726 now!
10-day predictions
STARLINK-35726 is classified as:


NORAD ID: 66280
Int'l Code: 2025-247R
Perigee: 481.5 km
Apogee: 483.2 km
Inclination: 53.2 °
Period: 94.1 minutes
Semi major axis: 6853 km
RCS: Unknown
Launch date: October 31, 2025
Source: United States (US)
Launch site: AIR FORCE WESTERN TEST RANGE (AFWTR)
Your satellite tracking list
Your tracking list is empty




NASA's NSSDC Master Catalog

Two Line Element Set (TLE):
1 66280U 25247R   26068.65994543  .00027990  00000-0  95388-3 0  9992
2 66280  53.1602 191.2591 0001242  63.1435 296.9692 15.30190344 21039
Source of the keplerian elements: AFSPC